Time,TemperatureF,DewpointF,PressureIn,WindDirection,WindDirectionDegrees,WindSpeedMPH,WindSpeedGustMPH,Humidity,HourlyPrecipIn,Conditions,Clouds,dailyrainin,SoftwareType,DateUTC
2013-10-01 00:02:00,56.8,30.8,29.91,ESE,122,0.0,0.0,37,0.00,,,0.00,Wunderground v.1.15,2013-10-01 06:02:00,
2013-10-01 00:12:00,56.2,31.5,29.91,ESE,121,0.0,0.0,39,0.00,,,0.00,Wunderground v.1.15,2013-10-01 06:12:00,
2013-10-01 00:22:00,55.8,31.2,29.90,ESE,122,0.0,0.0,39,0.00,,,0.00,Wunderground v.1.15,2013-10-01 06:22:00,
2013-10-01 00:32:00,55.4,30.2,29.90,ESE,121,0.0,0.0,38,0.00,,,0.00,Wunderground v.1.15,2013-10-01 06:32:00,
2013-10-01 00:37:00,55.7,29.8,29.91,ESE,122,0.0,0.0,37,0.00,,,0.00,Wunderground v.1.15,2013-10-01 06:37:00,
2013-10-01 00:42:00,55.9,30.0,29.91,ESE,122,0.0,0.0,37,0.00,,,0.00,Wunderground v.1.15,2013-10-01 06:42:00,
2013-10-01 00:52:00,55.4,31.5,29.91,ESE,122,0.0,0.0,40,0.00,,,0.00,Wunderground v.1.15,2013-10-01 06:52:00,
2013-10-01 00:57:00,54.7,30.8,29.91,ESE,122,0.0,0.0,40,0.00,,,0.00,Wunderground v.1.15,2013-10-01 06:57:00,
2013-10-01 01:07:00,53.7,30.5,29.91,ESE,121,0.0,0.0,41,0.00,,,0.00,Wunderground v.1.15,2013-10-01 07:07:00,
2013-10-01 01:17:00,53.3,30.2,29.91,ESE,121,0.0,0.0,41,0.00,,,0.00,Wunderground v.1.15,2013-10-01 07:17:00,
2013-10-01 01:27:00,53.4,29.7,29.91,ESE,121,0.0,0.0,40,0.00,,,0.00,Wunderground v.1.15,2013-10-01 07:27:00,
2013-10-01 01:37:00,53.6,29.8,29.91,ESE,121,0.0,0.0,40,0.00,,,0.00,Wunderground v.1.15,2013-10-01 07:37:00,
2013-10-01 01:47:00,53.3,30.2,29.91,ESE,121,0.0,0.0,41,0.00,,,0.00,Wunderground v.1.15,2013-10-01 07:47:00,
2013-10-01 01:52:00,52.9,29.8,29.91,ESE,121,0.0,0.0,41,0.00,,,0.00,Wunderground v.1.15,2013-10-01 07:52:00,
2013-10-01 02:02:00,52.2,29.8,29.91,ESE,121,0.0,0.0,42,0.00,,,0.00,Wunderground v.1.15,2013-10-01 08:02:00,
2013-10-01 02:12:00,52.0,29.6,29.91,ESE,122,0.0,0.0,42,0.00,,,0.00,Wunderground v.1.15,2013-10-01 08:12:00,
2013-10-01 02:17:00,52.1,29.7,29.92,ESE,121,0.0,0.0,42,0.00,,,0.00,Wunderground v.1.15,2013-10-01 08:17:00,
2013-10-01 02:27:00,51.9,30.6,29.92,SE,134,0.0,0.0,44,0.00,,,0.00,Wunderground v.1.15,2013-10-01 08:27:00,
2013-10-01 02:37:00,51.1,31.6,29.92,SE,131,0.0,0.0,47,0.00,,,0.00,Wunderground v.1.15,2013-10-01 08:37:00,
2013-10-01 02:42:00,50.7,31.7,29.92,SE,131,0.0,0.0,48,0.00,,,0.00,Wunderground v.1.15,2013-10-01 08:42:00,
2013-10-01 02:47:00,50.7,31.2,29.92,SE,131,0.0,0.0,47,0.00,,,0.00,Wunderground v.1.15,2013-10-01 08:47:00,
2013-10-01 02:57:00,50.5,31.5,29.92,ESE,104,0.0,0.0,48,0.00,,,0.00,Wunderground v.1.15,2013-10-01 08:57:00,
2013-10-01 03:02:00,50.2,31.8,29.92,ESE,104,0.0,0.0,49,0.00,,,0.00,Wunderground v.1.15,2013-10-01 09:02:00,
2013-10-01 03:12:00,49.7,30.8,29.92,ESE,105,0.0,0.0,48,0.00,,,0.00,Wunderground v.1.15,2013-10-01 09:12:00,
2013-10-01 03:22:00,49.3,30.4,29.92,ESE,104,0.0,0.0,48,0.00,,,0.00,Wunderground v.1.15,2013-10-01 09:22:00,
2013-10-01 03:27:00,50.0,28.9,29.92,East,86,0.0,0.0,44,0.00,,,0.00,Wunderground v.1.15,2013-10-01 09:27:00,
2013-10-01 03:32:00,50.9,29.7,29.92,East,98,0.0,0.0,44,0.00,,,0.00,Wunderground v.1.15,2013-10-01 09:32:00,
2013-10-01 03:37:00,51.4,30.2,29.92,SE,124,0.0,0.0,44,0.00,,,0.00,Wunderground v.1.15,2013-10-01 09:37:00,
2013-10-01 03:47:00,50.9,30.8,29.92,SE,124,0.0,0.0,46,0.00,,,0.00,Wunderground v.1.15,2013-10-01 09:47:00,
2013-10-01 03:52:00,50.5,30.5,29.92,SE,124,0.0,0.0,46,0.00,,,0.00,Wunderground v.1.15,2013-10-01 09:52:00,
2013-10-01 03:57:00,50.0,30.5,29.92,ESE,122,0.0,0.0,47,0.00,,,0.00,Wunderground v.1.15,2013-10-01 09:57:00,
2013-10-01 04:02:00,49.7,30.3,29.92,SE,124,0.0,0.0,47,0.00,,,0.00,Wunderground v.1.15,2013-10-01 10:02:00,
2013-10-01 04:12:00,50.9,29.2,29.92,ESE,107,0.0,0.0,43,0.00,,,0.00,Wunderground v.1.15,2013-10-01 10:12:00,
2013-10-01 04:22:00,51.1,31.0,29.92,SSW,200,0.0,0.0,46,0.00,,,0.00,Wunderground v.1.15,2013-10-01 10:22:00,
2013-10-01 04:27:00,50.5,29.9,29.93,SW,225,0.0,0.0,45,0.00,,,0.00,Wunderground v.1.15,2013-10-01 10:27:00,
2013-10-01 04:37:00,50.9,30.3,29.93,WNW,283,0.0,0.0,45,0.00,,,0.00,Wunderground v.1.15,2013-10-01 10:37:00,
2013-10-01 04:47:00,50.1,31.2,29.93,WNW,283,0.0,0.0,48,0.00,,,0.00,Wunderground v.1.15,2013-10-01 10:47:00,
2013-10-01 04:52:00,49.5,31.6,29.93,WNW,283,0.0,0.0,50,0.00,,,0.00,Wunderground v.1.15,2013-10-01 10:52:00,
2013-10-01 05:02:00,48.6,31.3,29.93,WNW,283,0.0,0.0,51,0.00,,,0.00,Wunderground v.1.15,2013-10-01 11:02:00,
2013-10-01 05:07:00,48.0,31.7,29.94,WNW,283,0.0,0.0,53,0.00,,,0.00,Wunderground v.1.15,2013-10-01 11:07:00,
2013-10-01 05:17:00,47.9,31.6,29.94,WNW,283,0.0,0.0,53,0.00,,,0.00,Wunderground v.1.15,2013-10-01 11:17:00,
2013-10-01 05:22:00,47.7,31.9,29.94,WNW,283,0.0,0.0,54,0.00,,,0.00,Wunderground v.1.15,2013-10-01 11:22:00,
2013-10-01 05:32:00,47.1,32.2,29.95,WNW,282,0.0,0.0,56,0.00,,,0.00,Wunderground v.1.15,2013-10-01 11:32:00,
2013-10-01 05:42:00,47.6,31.8,29.95,ESE,120,0.0,0.0,54,0.00,,,0.00,Wunderground v.1.15,2013-10-01 11:42:00,
2013-10-01 05:52:00,47.8,32.9,29.95,ESE,122,0.0,0.0,56,0.00,,,0.00,Wunderground v.1.15,2013-10-01 11:52:00,
2013-10-01 06:02:00,48.1,32.7,29.96,SE,131,0.0,0.0,55,0.00,,,0.00,Wunderground v.1.15,2013-10-01 12:02:00,
2013-10-01 06:12:00,48.1,32.2,29.96,SE,130,0.0,0.0,54,0.00,,,0.00,Wunderground v.1.15,2013-10-01 12:12:00,
2013-10-01 06:22:00,47.5,32.6,29.96,ESE,114,0.0,0.0,56,0.00,,,0.00,Wunderground v.1.15,2013-10-01 12:22:00,
2013-10-01 06:27:00,47.2,32.7,29.96,ESE,115,0.0,0.0,57,0.00,,,0.00,Wunderground v.1.15,2013-10-01 12:27:00,
2013-10-01 06:32:00,46.8,33.2,29.96,ESE,115,0.0,0.0,59,0.00,,,0.00,Wunderground v.1.15,2013-10-01 12:32:00,
2013-10-01 06:42:00,46.3,33.2,29.96,ESE,115,0.0,0.0,60,0.00,,,0.00,Wunderground v.1.15,2013-10-01 12:42:00,
2013-10-01 06:47:00,46.1,32.6,29.96,ESE,115,0.0,0.0,59,0.00,,,0.00,Wunderground v.1.15,2013-10-01 12:47:00,
2013-10-01 06:52:00,46.0,32.9,29.97,ESE,115,0.0,0.0,60,0.00,,,0.00,Wunderground v.1.15,2013-10-01 12:52:00,
2013-10-01 06:57:00,46.3,32.7,29.97,SE,128,0.0,0.0,59,0.00,,,0.00,Wunderground v.1.15,2013-10-01 12:57:00,
2013-10-01 07:02:00,46.5,32.5,29.97,SE,128,0.0,0.0,58,0.00,,,0.00,Wunderground v.1.15,2013-10-01 13:02:00,
2013-10-01 07:12:00,46.5,32.5,29.97,SE,127,0.0,0.0,58,0.00,,,0.00,Wunderground v.1.15,2013-10-01 13:12:00,
2013-10-01 07:22:00,46.0,33.3,29.97,SE,127,0.0,0.0,61,0.00,,,0.00,Wunderground v.1.15,2013-10-01 13:22:00,
2013-10-01 07:27:00,45.7,33.4,29.97,SE,127,0.0,0.0,62,0.00,,,0.00,Wunderground v.1.15,2013-10-01 13:27:00,
2013-10-01 07:32:00,45.6,33.3,29.98,SE,127,0.0,0.0,62,0.00,,,0.00,Wunderground v.1.15,2013-10-01 13:32:00,
2013-10-01 07:42:00,46.0,33.7,29.98,SE,127,0.0,0.0,62,0.00,,,0.00,Wunderground v.1.15,2013-10-01 13:42:00,
2013-10-01 07:47:00,46.8,33.6,29.98,ESE,122,0.0,0.0,60,0.00,,,0.00,Wunderground v.1.15,2013-10-01 13:47:00,
2013-10-01 07:52:00,47.9,34.3,29.98,SE,124,0.0,0.0,59,0.00,,,0.00,Wunderground v.1.15,2013-10-01 13:52:00,
2013-10-01 08:02:00,49.2,34.6,29.99,SE,124,0.0,0.0,57,0.00,,,0.00,Wunderground v.1.15,2013-10-01 14:02:00,
2013-10-01 08:12:00,51.1,33.6,29.99,SE,124,0.0,0.0,51,0.00,,,0.00,Wunderground v.1.15,2013-10-01 14:12:00,
2013-10-01 08:22:00,52.2,32.6,29.99,SE,129,0.0,0.0,47,0.00,,,0.00,Wunderground v.1.15,2013-10-01 14:22:00,
2013-10-01 08:32:00,53.8,31.8,30.00,SE,129,0.0,0.0,43,0.00,,,0.00,Wunderground v.1.15,2013-10-01 14:32:00,
2013-10-01 08:42:00,54.9,32.8,30.00,SE,136,0.0,0.0,43,0.00,,,0.00,Wunderground v.1.15,2013-10-01 14:42:00,
2013-10-01 08:52:00,57.7,32.2,30.00,SE,127,0.0,0.0,38,0.00,,,0.00,Wunderground v.1.15,2013-10-01 14:52:00,
2013-10-01 09:02:00,60.5,32.0,30.00,SE,132,0.0,1.0,34,0.00,,,0.00,Wunderground v.1.15,2013-10-01 15:02:00,
2013-10-01 09:12:00,61.9,30.9,30.00,SSE,158,1.0,1.0,31,0.00,,,0.00,Wunderground v.1.15,2013-10-01 15:12:00,
2013-10-01 09:17:00,62.5,29.8,30.00,ESE,118,1.0,1.0,29,0.00,,,0.00,Wunderground v.1.15,2013-10-01 15:17:00,
2013-10-01 09:22:00,63.7,30.0,30.00,ESE,122,0.0,0.0,28,0.00,,,0.00,Wunderground v.1.15,2013-10-01 15:22:00,
2013-10-01 09:27:00,64.3,30.5,30.00,SE,125,0.0,1.0,28,0.00,,,0.00,Wunderground v.1.15,2013-10-01 15:27:00,
2013-10-01 09:37:00,65.8,29.0,30.00,SE,145,0.0,1.0,25,0.00,,,0.00,Wunderground v.1.15,2013-10-01 15:37:00,
2013-10-01 09:42:00,66.4,30.4,30.00,SE,135,0.0,0.0,26,0.00,,,0.00,Wunderground v.1.15,2013-10-01 15:42:00,
2013-10-01 09:47:00,66.5,29.6,30.00,ESE,121,0.0,0.0,25,0.00,,,0.00,Wunderground v.1.15,2013-10-01 15:47:00,
2013-10-01 09:57:00,67.6,29.5,30.00,SE,131,0.0,1.0,24,0.00,,,0.00,Wunderground v.1.15,2013-10-01 15:57:00,
2013-10-01 10:02:00,68.0,28.8,30.00,ESE,121,0.0,0.0,23,0.00,,,0.00,Wunderground v.1.15,2013-10-01 16:02:00,
2013-10-01 10:12:00,67.8,28.6,30.00,ENE,73,0.0,0.0,23,0.00,,,0.00,Wunderground v.1.15,2013-10-01 16:12:00,
2013-10-01 10:17:00,68.1,27.8,29.99,ENE,73,0.0,0.0,22,0.00,,,0.00,Wunderground v.1.15,2013-10-01 16:17:00,
2013-10-01 10:27:00,70.2,28.4,29.99,SE,132,0.0,1.0,21,0.00,,,0.00,Wunderground v.1.15,2013-10-01 16:27:00,
2013-10-01 10:42:00,69.4,26.6,29.99,North,6,1.0,2.0,20,0.00,,,0.00,Wunderground v.1.15,2013-10-01 16:42:00,
2013-10-01 10:47:00,68.9,27.3,29.99,SSE,161,1.0,2.0,21,0.00,,,0.00,Wunderground v.1.15,2013-10-01 16:47:00,
2013-10-01 10:52:00,69.9,29.3,29.99,WNW,288,1.0,1.0,22,0.00,,,0.00,Wunderground v.1.15,2013-10-01 16:52:00,
2013-10-01 11:02:00,71.0,29.1,29.98,NE,41,0.0,1.0,21,0.00,,,0.00,Wunderground v.1.15,2013-10-01 17:02:00,
2013-10-01 11:12:00,71.8,27.3,29.98,SSE,158,1.0,3.0,19,0.00,,,0.00,Wunderground v.1.15,2013-10-01 17:12:00,
2013-10-01 11:17:00,71.8,28.5,29.98,SE,124,2.0,3.0,20,0.00,,,0.00,Wunderground v.1.15,2013-10-01 17:17:00,
2013-10-01 11:22:00,72.4,27.8,29.98,NE,34,1.0,1.0,19,0.00,,,0.00,Wunderground v.1.15,2013-10-01 17:22:00,
2013-10-01 11:27:00,72.9,29.4,29.97,SSE,152,0.0,1.0,20,0.00,,,0.00,Wunderground v.1.15,2013-10-01 17:27:00,
2013-10-01 11:32:00,73.6,28.8,29.97,West,260,0.0,1.0,19,0.00,,,0.00,Wunderground v.1.15,2013-10-01 17:32:00,
2013-10-01 11:37:00,74.0,30.4,29.97,SE,134,1.0,1.0,20,0.00,,,0.00,Wunderground v.1.15,2013-10-01 17:37:00,
2013-10-01 11:47:00,73.1,28.4,29.97,NNW,328,2.0,4.0,19,0.00,,,0.00,Wunderground v.1.15,2013-10-01 17:47:00,
2013-10-01 11:52:00,72.9,28.2,29.97,North,11,2.0,2.0,19,0.00,,,0.00,Wunderground v.1.15,2013-10-01 17:52:00,
2013-10-01 12:02:00,73.5,29.9,29.97,SSW,205,2.0,2.0,20,0.00,,,0.00,Wunderground v.1.15,2013-10-01 18:02:00,
2013-10-01 12:12:00,74.9,29.8,29.96,NW,323,1.0,1.0,19,0.00,,,0.00,Wunderground v.1.15,2013-10-01 18:12:00,
2013-10-01 12:17:00,75.4,28.9,29.96,WSW,253,1.0,1.0,18,0.00,,,0.00,Wunderground v.1.15,2013-10-01 18:17:00,
2013-10-01 12:22:00,75.0,27.2,29.95,North,359,2.0,2.0,17,0.00,,,0.00,Wunderground v.1.15,2013-10-01 18:22:00,
2013-10-01 12:32:00,76.5,28.4,29.95,West,271,1.0,2.0,17,0.00,,,0.00,Wunderground v.1.15,2013-10-01 18:32:00,
2013-10-01 12:37:00,76.7,27.1,29.95,NW,326,1.0,2.0,16,0.00,,,0.00,Wunderground v.1.15,2013-10-01 18:37:00,
2013-10-01 12:42:00,76.8,28.7,29.95,WSW,239,1.0,3.0,17,0.00,,,0.00,Wunderground v.1.15,2013-10-01 18:42:00,
2013-10-01 12:57:00,77.6,27.8,29.94,WSW,248,1.0,5.0,16,0.00,,,0.00,Wunderground v.1.15,2013-10-01 18:57:00,
2013-10-01 13:02:00,77.7,27.9,29.94,West,280,2.0,2.0,16,0.00,,,0.00,Wunderground v.1.15,2013-10-01 19:02:00,
2013-10-01 13:12:00,77.3,26.0,29.94,NNW,341,2.0,2.0,15,0.00,,,0.00,Wunderground v.1.15,2013-10-01 19:12:00,
2013-10-01 13:17:00,77.5,27.7,29.93,NNW,346,2.0,2.0,16,0.00,,,0.00,Wunderground v.1.15,2013-10-01 19:17:00,
2013-10-01 13:27:00,79.1,29.0,29.93,SSE,149,1.0,1.0,16,0.00,,,0.00,Wunderground v.1.15,2013-10-01 19:27:00,
2013-10-01 13:32:00,80.1,29.8,29.92,SE,128,1.0,1.0,16,0.00,,,0.00,Wunderground v.1.15,2013-10-01 19:32:00,
2013-10-01 13:42:00,80.4,26.8,29.92,NW,307,1.0,2.0,14,0.00,,,0.00,Wunderground v.1.15,2013-10-01 19:42:00,
2013-10-01 13:52:00,79.9,26.4,29.92,WNW,294,2.0,2.0,14,0.00,,,0.00,Wunderground v.1.15,2013-10-01 19:52:00,
2013-10-01 13:57:00,79.5,26.1,29.91,West,271,2.0,2.0,14,0.00,,,0.00,Wunderground v.1.15,2013-10-01 19:57:00,
2013-10-01 14:02:00,80.0,26.5,29.91,SW,232,1.0,1.0,14,0.00,,,0.00,Wunderground v.1.15,2013-10-01 20:02:00,
2013-10-01 14:12:00,81.0,25.5,29.91,NW,319,1.0,3.0,13,0.00,,,0.00,Wunderground v.1.15,2013-10-01 20:12:00,
2013-10-01 14:17:00,80.3,24.9,29.90,SSW,212,2.0,3.0,13,0.00,,,0.00,Wunderground v.1.15,2013-10-01 20:17:00,
2013-10-01 14:27:00,79.6,24.4,29.90,North,349,4.0,6.0,13,0.00,,,0.00,Wunderground v.1.15,2013-10-01 20:27:00,
2013-10-01 14:37:00,80.5,28.6,29.89,WSW,241,1.0,2.0,15,0.00,,,0.00,Wunderground v.1.15,2013-10-01 20:37:00,
2013-10-01 14:42:00,80.8,25.3,29.89,NW,321,2.0,2.0,13,0.00,,,0.00,Wunderground v.1.15,2013-10-01 20:42:00,
2013-10-01 14:52:00,80.4,25.0,29.89,North,6,2.0,2.0,13,0.00,,,0.00,Wunderground v.1.15,2013-10-01 20:52:00,
2013-10-01 14:57:00,80.6,23.3,29.89,South,181,2.0,3.0,12,0.00,,,0.00,Wunderground v.1.15,2013-10-01 20:57:00,
2013-10-01 15:02:00,81.2,23.7,29.89,South,184,2.0,2.0,12,0.00,,,0.00,Wunderground v.1.15,2013-10-01 21:02:00,
2013-10-01 15:12:00,81.8,24.2,29.88,SSE,152,1.0,1.0,12,0.00,,,0.00,Wunderground v.1.15,2013-10-01 21:12:00,
2013-10-01 15:17:00,82.4,26.6,29.88,WSW,239,1.0,1.0,13,0.00,,,0.00,Wunderground v.1.15,2013-10-01 21:17:00,
2013-10-01 15:22:00,82.5,24.7,29.88,WSW,252,2.0,2.0,12,0.00,,,0.00,Wunderground v.1.15,2013-10-01 21:22:00,
2013-10-01 15:32:00,83.1,23.1,29.88,SW,232,2.0,2.0,11,0.00,,,0.00,Wunderground v.1.15,2013-10-01 21:32:00,
2013-10-01 15:42:00,83.5,18.7,29.87,SSW,197,2.0,2.0,9,0.00,,,0.00,Wunderground v.1.15,2013-10-01 21:42:00,
2013-10-01 15:52:00,82.9,15.5,29.87,NNW,335,2.0,4.0,8,0.00,,,0.00,Wunderground v.1.15,2013-10-01 21:52:00,
2013-10-01 16:02:00,81.8,14.7,29.87,NW,307,3.0,3.0,8,0.00,,,0.00,Wunderground v.1.15,2013-10-01 22:02:00,
2013-10-01 16:12:00,82.2,15.0,29.86,West,269,1.0,1.0,8,0.00,,,0.00,Wunderground v.1.15,2013-10-01 22:12:00,
2013-10-01 16:22:00,82.9,15.5,29.86,SE,145,2.0,2.0,8,0.00,,,0.00,Wunderground v.1.15,2013-10-01 22:22:00,
2013-10-01 16:32:00,82.5,17.9,29.86,West,266,2.0,3.0,9,0.00,,,0.00,Wunderground v.1.15,2013-10-01 22:32:00,
2013-10-01 16:37:00,82.8,20.6,29.86,WNW,291,2.0,3.0,10,0.00,,,0.00,Wunderground v.1.15,2013-10-01 22:37:00,
2013-10-01 16:42:00,82.8,18.2,29.86,SSE,155,2.0,2.0,9,0.00,,,0.00,Wunderground v.1.15,2013-10-01 22:42:00,
2013-10-01 16:52:00,83.4,18.6,29.86,SSW,210,1.0,1.0,9,0.00,,,0.00,Wunderground v.1.15,2013-10-01 22:52:00,
2013-10-01 16:57:00,83.7,21.3,29.86,SSE,168,1.0,1.0,10,0.00,,,0.00,Wunderground v.1.15,2013-10-01 22:57:00,
2013-10-01 17:02:00,83.9,16.3,29.86,SSW,197,1.0,2.0,8,0.00,,,0.00,Wunderground v.1.15,2013-10-01 23:02:00,
2013-10-01 17:12:00,82.0,17.6,29.86,WNW,294,3.0,3.0,9,0.00,,,0.00,Wunderground v.1.15,2013-10-01 23:12:00,
2013-10-01 17:22:00,81.2,17.0,29.86,NW,309,3.0,3.0,9,0.00,,,0.00,Wunderground v.1.15,2013-10-01 23:22:00,
2013-10-01 17:32:00,81.2,17.0,29.86,WNW,303,2.0,4.0,9,0.00,,,0.00,Wunderground v.1.15,2013-10-01 23:32:00,
2013-10-01 17:42:00,81.2,17.0,29.86,NNW,333,2.0,2.0,9,0.00,,,0.00,Wunderground v.1.15,2013-10-01 23:42:00,
2013-10-01 17:52:00,81.4,17.1,29.86,WNW,291,1.0,1.0,9,0.00,,,0.00,Wunderground v.1.15,2013-10-01 23:52:00,
2013-10-01 18:02:00,81.0,16.8,29.86,North,5,1.0,1.0,9,0.00,,,0.00,Wunderground v.1.15,2013-10-02 00:02:00,
2013-10-01 18:12:00,81.8,22.1,29.86,SSE,159,0.0,1.0,11,0.00,,,0.00,Wunderground v.1.15,2013-10-02 00:12:00,
2013-10-01 18:17:00,82.2,24.5,29.86,SSE,167,0.0,1.0,12,0.00,,,0.00,Wunderground v.1.15,2013-10-02 00:17:00,
2013-10-01 18:27:00,81.7,24.1,29.86,WSW,237,1.0,4.0,12,0.00,,,0.00,Wunderground v.1.15,2013-10-02 00:27:00,
2013-10-01 18:35:00,80.3,21.0,29.86,SSW,211,1.0,1.0,11,0.00,,,0.00,Wunderground v.1.15,2013-10-02 00:35:00,
2013-10-01 18:45:00,78.0,21.2,29.86,South,178,1.0,1.0,12,0.00,,,0.00,Wunderground v.1.15,2013-10-02 00:45:00,
2013-10-01 18:55:00,76.5,22.0,29.86,SSE,150,1.0,1.0,13,0.00,,,0.00,Wunderground v.1.15,2013-10-02 00:55:00,
2013-10-01 19:00:00,75.7,21.3,29.86,SSE,152,0.0,0.0,13,0.00,,,0.00,Wunderground v.1.15,2013-10-02 01:00:00,
2013-10-01 19:05:00,75.0,24.2,29.86,SSE,152,0.0,0.0,15,0.00,,,0.00,Wunderground v.1.15,2013-10-02 01:05:00,
2013-10-01 19:15:00,73.3,27.2,29.86,SSE,152,0.0,0.0,18,0.00,,,0.00,Wunderground v.1.15,2013-10-02 01:15:00,
2013-10-01 19:25:00,71.1,29.2,29.87,SSE,152,0.0,0.0,21,0.00,,,0.00,Wunderground v.1.15,2013-10-02 01:25:00,
2013-10-01 19:35:00,69.5,29.0,29.87,SSE,152,0.0,0.0,22,0.00,,,0.00,Wunderground v.1.15,2013-10-02 01:35:00,
2013-10-01 19:45:00,68.7,29.4,29.87,SSE,152,0.0,0.0,23,0.00,,,0.00,Wunderground v.1.15,2013-10-02 01:45:00,
2013-10-01 19:55:00,68.2,30.0,29.87,SSE,152,0.0,0.0,24,0.00,,,0.00,Wunderground v.1.15,2013-10-02 01:55:00,
2013-10-01 20:00:00,67.7,29.6,29.87,SSE,153,0.0,0.0,24,0.00,,,0.00,Wunderground v.1.15,2013-10-02 02:00:00,
2013-10-01 20:09:00,66.8,28.8,29.87,SSE,152,0.0,0.0,24,0.00,,,0.00,Wunderground v.1.15,2013-10-02 02:09:00,
2013-10-01 20:19:00,66.4,26.4,29.87,SSE,153,0.0,0.0,22,0.00,,,0.00,Wunderground v.1.15,2013-10-02 02:19:00,
2013-10-01 20:29:00,66.1,27.2,29.88,SE,134,0.0,0.0,23,0.00,,,0.00,Wunderground v.1.15,2013-10-02 02:29:00,
2013-10-01 20:35:00,66.0,27.1,29.89,WSW,239,0.0,0.0,23,0.00,,,0.00,Wunderground v.1.15,2013-10-02 02:35:00,
2013-10-01 20:44:00,65.7,27.9,29.89,ESE,121,0.0,0.0,24,0.00,,,0.00,Wunderground v.1.15,2013-10-02 02:44:00,
2013-10-01 20:54:00,64.9,28.2,29.89,ENE,61,0.0,0.0,25,0.00,,,0.00,Wunderground v.1.15,2013-10-02 02:54:00,
2013-10-01 21:00:00,64.9,29.2,29.89,ENE,60,0.0,0.0,26,0.00,,,0.00,Wunderground v.1.15,2013-10-02 03:00:00,
2013-10-01 21:09:00,63.7,29.1,29.90,ENE,61,0.0,0.0,27,0.00,,,0.00,Wunderground v.1.15,2013-10-02 03:09:00,
2013-10-01 21:19:00,63.0,30.2,29.90,SSE,149,0.0,0.0,29,0.00,,,0.00,Wunderground v.1.15,2013-10-02 03:19:00,
2013-10-01 21:29:00,62.6,31.5,29.90,SE,131,0.0,0.0,31,0.00,,,0.00,Wunderground v.1.15,2013-10-02 03:29:00,
2013-10-01 21:34:00,61.9,30.9,29.90,SE,131,0.0,0.0,31,0.00,,,0.00,Wunderground v.1.15,2013-10-02 03:34:00,
2013-10-01 21:44:00,61.7,31.5,29.91,SE,134,0.0,0.0,32,0.00,,,0.00,Wunderground v.1.15,2013-10-02 03:44:00,
2013-10-01 21:54:00,61.3,31.2,29.91,ESE,118,0.0,1.0,32,0.00,,,0.00,Wunderground v.1.15,2013-10-02 03:54:00,
2013-10-01 21:59:00,61.3,30.4,29.91,ESE,118,0.0,0.0,31,0.00,,,0.00,Wunderground v.1.15,2013-10-02 03:59:00,
2013-10-01 22:04:00,61.2,31.1,29.91,ESE,118,0.0,0.0,32,0.00,,,0.00,Wunderground v.1.15,2013-10-02 04:04:00,
2013-10-01 22:09:00,60.9,30.0,29.91,ESE,118,0.0,0.0,31,0.00,,,0.00,Wunderground v.1.15,2013-10-02 04:09:00,
2013-10-01 22:19:00,60.2,30.2,29.92,ESE,120,0.0,0.0,32,0.00,,,0.00,Wunderground v.1.15,2013-10-02 04:19:00,
2013-10-01 22:24:00,60.0,30.0,29.92,ESE,120,0.0,0.0,32,0.00,,,0.00,Wunderground v.1.15,2013-10-02 04:24:00,
2013-10-01 22:34:00,60.1,30.1,29.92,ESE,121,0.0,0.0,32,0.00,,,0.00,Wunderground v.1.15,2013-10-02 04:34:00,
2013-10-01 22:39:00,60.0,29.2,29.92,ESE,122,0.0,0.0,31,0.00,,,0.00,Wunderground v.1.15,2013-10-02 04:39:00,
2013-10-01 22:44:00,59.8,29.9,29.92,ESE,121,0.0,0.0,32,0.00,,,0.00,Wunderground v.1.15,2013-10-02 04:44:00,
2013-10-01 22:54:00,59.6,29.7,29.92,ESE,121,0.0,0.0,32,0.00,,,0.00,Wunderground v.1.15,2013-10-02 04:54:00,
2013-10-01 22:59:00,59.4,29.5,29.92,ESE,122,0.0,0.0,32,0.00,,,0.00,Wunderground v.1.15,2013-10-02 04:59:00,
2013-10-01 23:09:00,59.1,29.2,29.92,ESE,121,0.0,0.0,32,0.00,,,0.00,Wunderground v.1.15,2013-10-02 05:09:00,
2013-10-01 23:14:00,59.0,29.9,29.92,ESE,121,0.0,0.0,33,0.00,,,0.00,Wunderground v.1.15,2013-10-02 05:14:00,
2013-10-01 23:19:00,58.6,30.3,29.92,ESE,122,0.0,0.0,34,0.00,,,0.00,Wunderground v.1.15,2013-10-02 05:19:00,
2013-10-01 23:29:00,58.8,29.7,29.92,ESE,118,0.0,0.0,33,0.00,,,0.00,Wunderground v.1.15,2013-10-02 05:29:00,
2013-10-01 23:39:00,58.8,29.0,29.92,ESE,118,0.0,0.0,32,0.00,,,0.00,Wunderground v.1.15,2013-10-02 05:39:00,
2013-10-01 23:49:00,58.3,29.3,29.92,ESE,115,0.0,0.0,33,0.00,,,0.00,Wunderground v.1.15,2013-10-02 05:49:00,
2013-10-01 23:59:00,58.3,28.5,29.92,ESE,115,0.0,0.0,32,0.00,,,0.00,Wunderground v.1.15,2013-10-02 05:59:00,